Teterboro, NJ

5:12 PM EDT on June 28, 2017 (GMT -0400)
Teterboro

Weather History for KTEB - August, 2013

Change the Weather History Date:

Friday, August 2, 2013

  Actual Average Record
Temperature  
Mean Temperature 74 °F -  
Max Temperature 87 °F 83 °F 100 °F (2002)
Min Temperature 63 °F 64 °F 55 °F (1998)
Cooling Degree Days 8    
Growing Degree Days 24 (Base 50)    
Moisture  
Dew Point 62 °F    
Average Humidity 73    
Maximum Humidity 100    
Minimum Humidity 37    
Precipitation  
Precipitation 0.00 in - - ()
Sea Level Pressure  
Sea Level Pressure 29.85 in    
Wind  
Wind Speed 3 mph (West)    
Max Wind Speed 15 mph    
Max Gust Speed 22 mph    
Visibility 7 miles    
Events Fog    
Averages and records for this station are not official NWS values.
T = Trace of Precipitation, MM = Missing Value Source: NWS Daily Summary

Daily Weather History Graph

Daily Weather History Graph

Search for Another Location

Airport or City:

Trip Planner

Search our weather history database for the weather conditions in past years. The results will help you decide how hot, cold, wet, or windy it might be!

Date:

Astronomy

Aug. 02, 2013 Rise Set
Actual Time 5:53 AM EDT 8:10 PM EDT
Civil Twilight 5:23 AM EDT 8:41 PM EDT
Nautical Twilight 4:45 AM EDT 9:18 PM EDT
Astronomical Twilight 4:03 AM EDT 10:00 PM EDT
Moon 2:12 AM EDT (8/2) 5:06 PM EDT (8/2)
Length of Visible Light 15h 18m
Length of Day
14h 16m
Waning Crescent, 16% of the Moon is Illuminated
Aug 2
Waning Crescent
Aug 6
New
Aug 14
First Quarter
Aug 20
Full
Aug 28
Last Quarter

Hourly Weather History & Observations

Time (EDT) Temp. Heat Index Dew Point Humidity Pressure Visibility Wind Dir Wind Speed Gust Speed Precip Events Conditions
12:51 AM 70.0 °F - 68.0 °F 93% 29.83 in 6.0 mi Calm Calm - N/A   Overcast
1:51 AM 70.0 °F - 68.0 °F 93% 29.81 in 7.0 mi Calm Calm - N/A   Mostly Cloudy
2:51 AM 68.0 °F - 66.9 °F 96% 29.79 in 3.0 mi Calm Calm - N/A   Clear
3:03 AM 68.0 °F - 66.2 °F 94% 29.79 in 1.8 mi Calm Calm - N/A   Clear
3:12 AM 66.2 °F - 66.2 °F 100% 29.79 in 5.0 mi Calm Calm - N/A   Partly Cloudy
3:35 AM 66.2 °F - 64.4 °F 94% 29.79 in 5.0 mi Calm Calm - N/A Fog Shallow Fog
3:45 AM 66.2 °F - 64.4 °F 94% 29.79 in 1.0 mi Calm Calm - N/A Fog Shallow Fog
3:51 AM 66.0 °F - 64.9 °F 96% 29.79 in 0.2 mi Calm Calm - N/A Fog Shallow Fog
4:06 AM 64.4 °F - 64.4 °F 100% 29.80 in 1.0 mi Calm Calm - N/A Fog Shallow Fog
4:13 AM 64.4 °F - 64.4 °F 100% 29.80 in 1.0 mi Calm Calm - N/A Fog Shallow Fog
4:51 AM 64.0 °F - 64.0 °F 100% 29.81 in 1.0 mi Calm Calm - N/A Fog Shallow Fog
5:00 AM 64.4 °F - 64.4 °F 100% 29.81 in 5.0 mi Calm Calm - N/A Fog Shallow Fog
5:51 AM 64.0 °F - 64.0 °F 100% 29.83 in 8.0 mi WNW 3.5 mph - N/A Fog Shallow Fog
6:51 AM 63.0 °F - 63.0 °F 100% 29.86 in 10.0 mi Calm Calm - N/A   Clear
7:51 AM 66.9 °F - 62.1 °F 84% 29.87 in 10.0 mi NNW 4.6 mph - N/A   Clear
8:51 AM 71.1 °F - 62.1 °F 73% 29.88 in 10.0 mi NW 6.9 mph - N/A   Clear
9:51 AM 73.9 °F - 62.1 °F 66% 29.89 in 10.0 mi NNW 9.2 mph - N/A   Clear
10:51 AM 77.0 °F - 62.1 °F 60% 29.90 in 10.0 mi NW 5.8 mph - N/A   Clear
11:51 AM 78.1 °F - 60.1 °F 54% 29.89 in 10.0 mi West 10.4 mph 17.3 mph N/A   Scattered Clouds
12:51 PM 81.0 °F 81.1 °F 57.9 °F 45% 29.88 in 10.0 mi WNW 9.2 mph - N/A   Partly Cloudy
1:51 PM 82.9 °F 82.8 °F 59.0 °F 44% 29.87 in 10.0 mi North - - N/A   Partly Cloudy
2:51 PM 84.9 °F 84.8 °F 60.1 °F 43% 29.86 in 10.0 mi West 10.4 mph - N/A   Scattered Clouds
3:51 PM 84.9 °F 83.7 °F 55.9 °F 37% 29.86 in 10.0 mi WSW 12.7 mph - N/A   Partly Cloudy
4:51 PM 82.9 °F 82.0 °F 55.0 °F 38% 29.86 in 10.0 mi WSW 15.0 mph 21.9 mph N/A   Clear
5:51 PM 82.0 °F 81.7 °F 57.0 °F 42% 29.86 in 10.0 mi West 13.8 mph 19.6 mph N/A   Clear
6:51 PM 82.0 °F 81.7 °F 57.0 °F 42% 29.84 in 10.0 mi WSW 11.5 mph - N/A   Clear
7:51 PM 80.1 °F 80.6 °F 57.9 °F 47% 29.87 in 10.0 mi WSW 9.2 mph - N/A   Overcast
8:51 PM 79.0 °F - 59.0 °F 50% 29.88 in 10.0 mi WSW 6.9 mph - N/A   Overcast
9:51 PM 78.1 °F - 61.0 °F 56% 29.90 in 10.0 mi WSW 8.1 mph - 0.00 in   Partly Cloudy
10:51 PM 75.9 °F - 60.1 °F 58% 29.90 in 10.0 mi WSW 5.8 mph - N/A   Clear
11:51 PM 73.9 °F - 57.0 °F 55% 29.90 in 10.0 mi West 8.1 mph - N/A   Clear